Sterling, IL

4:19 AM CDT on July 25, 2017 (GMT -0500)
Whiteside County-Bittorf

Weather History for KSQI - March, 2013

Change the Weather History Date:

Tuesday, March 12, 2013

  Actual Average Record
Temperature  
Mean Temperature 30 °F -  
Max Temperature 35 °F 40 °F 64 °F (2007)
Min Temperature 26 °F 23 °F 8 °F (1998)
Degree Days  
Heating Degree Days 34    
Moisture  
Dew Point 23 °F    
Average Humidity 74    
Maximum Humidity 86    
Minimum Humidity 64    
Precipitation  
Precipitation 0.00 in - - ()
Sea Level Pressure  
Sea Level Pressure 29.96 in    
Wind  
Wind Speed 17 mph (West)    
Max Wind Speed 25 mph    
Max Gust Speed 33 mph    
Visibility 10 miles    
Events      
Averages and records for this station are not official NWS values.
T = Trace of Precipitation, MM = Missing Value Source: NWS Daily Summary

Daily Weather History Graph

Daily Weather History Graph

Search for Another Location

Airport or City:

Trip Planner

Search our weather history database for the weather conditions in past years. The results will help you decide how hot, cold, wet, or windy it might be!

Date:

Astronomy

Mar. 12, 2013 Rise Set
Actual Time 7:15 AM CDT 7:02 PM CDT
Civil Twilight 6:47 AM CDT 7:29 PM CDT
Nautical Twilight 6:15 AM CDT 8:02 PM CDT
Astronomical Twilight 5:42 AM CDT 8:34 PM CDT
Moon 7:20 AM CDT (3/12) 8:19 PM CDT (3/12)
Length of Visible Light 12h 42m
Length of Day
11h 47m
New Moon, 1% of the Moon is Illuminated
Mar 12
New Moon
Mar 19
First Quarter
Mar 27
Full
Apr 2
Last Quarter
Apr 10
New

Hourly Weather History & Observations

Time (CDT) Temp. Windchill Dew Point Humidity Pressure Visibility Wind Dir Wind Speed Gust Speed Precip Events Conditions
12:35 AM 30.2 °F 18.1 °F 24.8 °F 80% 29.86 in 10.0 mi West 18.4 mph - N/A   Overcast
12:55 AM 30.2 °F 18.1 °F 24.8 °F 80% 29.86 in 10.0 mi West 18.4 mph 25.3 mph N/A   Overcast
1:15 AM 30.2 °F 18.9 °F 24.8 °F 80% 29.86 in 10.0 mi West 16.1 mph 25.3 mph N/A   Overcast
1:35 AM 30.2 °F 18.9 °F 24.8 °F 80% 29.87 in 10.0 mi West 16.1 mph 19.6 mph N/A   Overcast
1:55 AM 30.2 °F 19.3 °F 24.8 °F 80% 29.88 in 10.0 mi West 15.0 mph - N/A   Overcast
2:15 AM 30.2 °F 18.1 °F 23.0 °F 75% 29.89 in 10.0 mi West 18.4 mph - N/A   Overcast
2:35 AM 30.2 °F 18.1 °F 24.8 °F 80% 29.89 in 10.0 mi West 18.4 mph - N/A   Overcast
2:55 AM 28.4 °F 15.8 °F 24.8 °F 86% 29.90 in 3.0 mi West 18.4 mph - N/A   Overcast
3:15 AM 28.4 °F 16.2 °F 24.8 °F 86% 29.90 in 9.0 mi West 17.3 mph - N/A   Overcast
3:35 AM 28.4 °F 16.2 °F 24.8 °F 86% 29.89 in 10.0 mi West 17.3 mph - N/A   Overcast
3:55 AM 28.4 °F 15.4 °F 23.0 °F 80% 29.89 in 10.0 mi West 19.6 mph 25.3 mph N/A   Overcast
4:15 AM 28.4 °F 17.0 °F 21.2 °F 74% 29.90 in 10.0 mi WNW 15.0 mph - N/A   Overcast
4:35 AM 28.4 °F 16.6 °F 23.0 °F 80% 29.89 in 10.0 mi West 16.1 mph - N/A   Overcast
4:55 AM 28.4 °F 17.5 °F 21.2 °F 74% 29.90 in 10.0 mi West 13.8 mph - N/A   Scattered Clouds
5:15 AM 26.6 °F 16.2 °F 21.2 °F 80% 29.91 in 10.0 mi West 11.5 mph - N/A   Scattered Clouds
5:35 AM 26.6 °F 16.2 °F 21.2 °F 80% 29.91 in 10.0 mi West 11.5 mph - N/A   Partly Cloudy
5:55 AM 26.6 °F 15.7 °F 19.4 °F 74% 29.91 in 10.0 mi West 12.7 mph - N/A   Clear
6:35 AM 26.6 °F 15.2 °F 17.6 °F 69% 29.93 in 10.0 mi West 13.8 mph - N/A   Clear
6:55 AM 26.6 °F 15.2 °F 17.6 °F 69% 29.93 in 10.0 mi West 13.8 mph - N/A   Clear
7:15 AM 26.6 °F 15.2 °F 17.6 °F 69% 29.94 in 10.0 mi West 13.8 mph - N/A   Clear
7:35 AM 26.6 °F 15.7 °F 19.4 °F 74% 29.93 in 10.0 mi West 12.7 mph - N/A   Clear
7:55 AM 26.6 °F 16.8 °F 19.4 °F 74% 29.93 in 10.0 mi West 10.4 mph - N/A   Clear
8:15 AM 28.4 °F 19.7 °F 19.4 °F 69% 29.94 in 10.0 mi West 9.2 mph - N/A   Clear
8:35 AM 28.4 °F 18.0 °F 21.2 °F 74% 29.94 in 10.0 mi West 12.7 mph - N/A   Clear
8:55 AM 28.4 °F 17.5 °F 21.2 °F 74% 29.95 in 10.0 mi West 13.8 mph - N/A   Clear
9:15 AM 28.4 °F 16.2 °F 23.0 °F 80% 29.95 in 10.0 mi West 17.3 mph - N/A   Scattered Clouds
9:35 AM 28.4 °F 17.0 °F 23.0 °F 80% 29.96 in 10.0 mi West 15.0 mph - N/A   Overcast
9:55 AM 30.2 °F 20.8 °F 23.0 °F 75% 29.96 in 10.0 mi West 11.5 mph - N/A   Overcast
10:15 AM 32.0 °F 23.6 °F 24.8 °F 75% 29.96 in 10.0 mi WSW 10.4 mph - N/A   Mostly Cloudy
10:35 AM 30.2 °F 20.8 °F 24.8 °F 80% 29.96 in 10.0 mi WSW 11.5 mph - N/A   Overcast
10:55 AM 32.0 °F 23.0 °F 24.8 °F 75% 29.97 in 10.0 mi WSW 11.5 mph - N/A   Overcast
11:15 AM 33.8 °F 22.2 °F 24.8 °F 70% 29.97 in 10.0 mi West 20.7 mph - N/A   Overcast
11:35 AM 33.8 °F 23.5 °F 24.8 °F 70% 29.97 in 10.0 mi West 16.1 mph - N/A   Overcast
11:55 AM 33.8 °F 24.8 °F 24.8 °F 70% 29.96 in 10.0 mi West 12.7 mph - N/A   Overcast
12:15 PM 35.6 °F 27.5 °F 24.8 °F 65% 29.96 in 10.0 mi WSW 11.5 mph - N/A   Overcast
12:35 PM 35.6 °F 26.6 °F 26.6 °F 70% 29.95 in 10.0 mi WSW 13.8 mph 18.4 mph N/A   Overcast
12:55 PM 35.6 °F 27.5 °F 26.6 °F 70% 29.95 in 10.0 mi WSW 11.5 mph 19.6 mph N/A   Mostly Cloudy
1:15 PM 35.6 °F 26.6 °F 26.6 °F 70% 29.95 in 10.0 mi WSW 13.8 mph 18.4 mph N/A   Overcast
1:35 PM 33.8 °F 21.3 °F 26.6 °F 75% 29.96 in 10.0 mi West 24.2 mph 29.9 mph N/A   Overcast
1:55 PM 33.8 °F 21.6 °F 28.4 °F 81% 29.96 in 2.0 mi West 23.0 mph 29.9 mph N/A   Overcast
2:15 PM 33.8 °F 21.9 °F 28.4 °F 81% 29.96 in 10.0 mi West 21.9 mph 31.1 mph N/A   Overcast
2:35 PM 33.8 °F 22.8 °F 28.4 °F 81% 29.96 in 10.0 mi West 18.4 mph 23.0 mph N/A   Overcast
2:55 PM 33.8 °F 22.5 °F 28.4 °F 81% 29.95 in 10.0 mi West 19.6 mph 26.5 mph N/A   Overcast
3:15 PM 35.6 °F 24.2 °F 28.4 °F 75% 29.95 in 10.0 mi West 21.9 mph 27.6 mph N/A   Overcast
3:35 PM 35.6 °F 24.5 °F 28.4 °F 75% 29.95 in 10.0 mi West 20.7 mph 26.5 mph N/A   Overcast
3:55 PM 35.6 °F 23.7 °F 28.4 °F 75% 29.95 in 10.0 mi West 24.2 mph - N/A   Overcast
4:15 PM 33.8 °F 22.5 °F 26.6 °F 75% 29.95 in 8.0 mi West 19.6 mph 28.8 mph N/A   Overcast
4:35 PM 33.8 °F 21.9 °F 28.4 °F 81% 29.95 in 3.0 mi West 21.9 mph 29.9 mph N/A   Overcast
5:15 PM 33.8 °F 21.0 °F 28.4 °F 81% 29.95 in 10.0 mi WNW 25.3 mph 31.1 mph N/A   Mostly Cloudy
5:35 PM 33.8 °F 21.9 °F 24.8 °F 70% 29.96 in 10.0 mi WNW 21.9 mph - N/A   Mostly Cloudy
5:55 PM - - - N/A% 29.97 in 10.0 mi WNW 25.3 mph 33.4 mph N/A   Mostly Cloudy
6:15 PM 30.2 °F 18.1 °F 21.2 °F 69% 29.98 in 10.0 mi NW 18.4 mph 25.3 mph N/A   Mostly Cloudy
6:35 PM 30.2 °F 16.8 °F 19.4 °F 64% 29.99 in 10.0 mi WNW 23.0 mph 31.1 mph N/A   Mostly Cloudy
6:55 PM 30.2 °F 17.1 °F 19.4 °F 64% 30.00 in 10.0 mi WNW 21.9 mph 32.2 mph N/A   Overcast
7:16 PM 30.2 °F 17.1 °F 19.4 °F 64% 30.01 in 10.0 mi WNW 21.9 mph 31.1 mph N/A   Overcast
7:35 PM 28.4 °F 14.7 °F 19.4 °F 69% 30.02 in 10.0 mi NW 21.9 mph 27.6 mph N/A   Overcast
7:55 PM 28.4 °F 17.0 °F 19.4 °F 69% 30.03 in 10.0 mi NW 15.0 mph 24.2 mph N/A   Overcast
8:15 PM 28.4 °F 17.5 °F 19.4 °F 69% 30.04 in 10.0 mi WNW 13.8 mph 23.0 mph N/A   Overcast
8:35 PM 28.4 °F 14.7 °F 19.4 °F 69% 30.04 in 10.0 mi WNW 21.9 mph 28.8 mph N/A   Mostly Cloudy
8:55 PM 26.6 °F 13.4 °F 17.6 °F 69% 30.05 in 10.0 mi WNW 18.4 mph 28.8 mph N/A   Mostly Cloudy
9:15 PM 26.6 °F 13.4 °F 19.4 °F 74% 30.06 in 10.0 mi WNW 18.4 mph 25.3 mph N/A   Mostly Cloudy
9:35 PM 26.6 °F 13.4 °F 19.4 °F 74% 30.06 in 10.0 mi WNW 18.4 mph 25.3 mph N/A   Mostly Cloudy
9:55 PM 26.6 °F 13.1 °F 17.6 °F 69% 30.06 in 10.0 mi WNW 19.6 mph 27.6 mph N/A   Scattered Clouds
10:15 PM 26.6 °F 13.1 °F 17.6 °F 69% 30.07 in 10.0 mi WNW 19.6 mph 26.5 mph N/A   Scattered Clouds
10:35 PM 26.6 °F 13.8 °F 17.6 °F 69% 30.08 in 10.0 mi WNW 17.3 mph 23.0 mph N/A   Scattered Clouds
10:55 PM 26.6 °F 14.7 °F 17.6 °F 69% 30.08 in 10.0 mi WNW 15.0 mph 24.2 mph N/A   Partly Cloudy
11:15 PM 26.6 °F 14.7 °F 17.6 °F 69% 30.08 in 10.0 mi WNW 15.0 mph 23.0 mph N/A   Clear
11:35 PM 26.6 °F 15.2 °F 17.6 °F 69% 30.08 in 10.0 mi WNW 13.8 mph 20.7 mph N/A   Scattered Clouds
11:55 PM 26.6 °F 15.2 °F 19.4 °F 74% 30.09 in 10.0 mi WNW 13.8 mph 21.9 mph N/A   Overcast